Flag for Italy Weather past 2 weeks in Catania, Italy

Now
63 °F

Passing clouds.


Feels Like: 63 °F
Forecast: 51 / 73 °F
Wind: 12 mph from East

Location: Catania / Fontanarossa

Current Time: Apr 25, 2015 at 3:23:34 PM

Latest Report: Apr 25, 2015 at 2:50 PM


Visibility: N/A

Pressure: 30.04 "Hg

Humidity: 73%

Dew point: 54 °F

Location of CataniaLocation

Historic Weather in Catania — Graph

°F

Catania temperature yesterday

Maximum temperature yesterday: 63 °F (at 11:50 AM)
Minimum temperature yesterday: 50 °F (at 4:20 AM)
Average temperature yesterday: 57 °F

Past Weeks' High & Low Weather Summary

 TemperatureHumidityPressure
High77 °F (Apr 17, 12:20 PM)94% (Apr 14, 12:20 AM)30.42 "Hg (Apr 14, 12:20 AM)
Low41 °F (Apr 11, 6:50 AM)16% (Apr 23, 3:50 PM)29.86 "Hg (Apr 19, 5:20 AM)
Average58 °F66%30.16 "Hg
* Reported Apr 10 1:20 PM — Apr 25 1:50 PM, Catania, Weather by CustomWeather, © 2015

Note: Actual official high and low records may vary slightly from our data, if they occured in-between our weather recording intervals... More about our weather records

Advertising

Catania weather history for previous 24 hours

 ConditionsComfort  
Time TempWeatherWind HumidityBarometerVisibility
1:50 PM
Sat, Apr 25
64 °FPassing clouds.12 mph68%30.07 "HgN/A
1:20 PM63 °FSunny.12 mph73%30.04 "Hg10 mi
12:50 PM63 °FSunny.13 mph73%30.04 "Hg10 mi
12:20 PM63 °FSunny.10 mph73%30.07 "Hg10 mi
11:50 AM63 °FSunny.10 mph73%30.07 "Hg10 mi
11:20 AM63 °FSunny.9 mph68%30.07 "Hg10 mi
10:50 AM64 °FPassing clouds.9 mph68%30.07 "HgN/A
10:20 AM63 °FPassing clouds.8 mph68%30.07 "HgN/A
9:50 AM63 °FPassing clouds.7 mph68%30.04 "HgN/A
9:20 AM63 °FPassing clouds.7 mph73%30.04 "HgN/A
8:50 AM61 °FPassing clouds.7 mph72%30.04 "HgN/A
8:20 AM61 °FPassing clouds.6 mph77%30.04 "HgN/A
7:50 AM57 °FScattered clouds.3 mph88%30.04 "Hg5 mi
7:20 AM55 °FFog.2 mph94%30.04 "Hg3 mi
6:50 AM54 °FSleet. Passing clouds.2 mph94%30.01 "HgN/A
6:20 AM54 °FSleet. Passing clouds.3 mph94%30.01 "Hg4 mi
5:50 AM54 °FSleet. Passing clouds.2 mph88%30.01 "Hg4 mi
5:20 AM52 °FSleet. Passing clouds.3 mph94%30.01 "Hg4 mi
4:50 AM52 °FSleet. Passing clouds.2 mph94%30.01 "Hg4 mi
4:20 AM52 °FFog.2 mph94%30.01 "Hg1 mi
3:50 AM54 °FSnow. Passing clouds.1 mph88%30.04 "Hg1 mi
3:20 AM55 °FPassing clouds.1 mph94%30.04 "Hg4 mi
2:50 AM55 °FPassing clouds.No wind94%30.04 "Hg4 mi
2:20 AM57 °FPassing clouds.2 mph88%30.04 "Hg4 mi
1:50 AM57 °FPassing clouds.1 mph88%30.04 "Hg4 mi
1:20 AM57 °FPassing clouds.3 mph88%30.04 "Hg5 mi
12:50 AM57 °FPassing clouds.3 mph88%30.04 "Hg5 mi
12:20 AM57 °FPassing clouds.5 mph88%30.07 "Hg5 mi
11:50 PM
Fri, Apr 24
57 °FPassing clouds.7 mph88%30.04 "HgN/A
11:20 PM57 °FPassing clouds.7 mph88%30.04 "HgN/A
10:50 PM57 °FPassing clouds.8 mph88%30.04 "HgN/A
10:20 PM59 °FPassing clouds.6 mph88%30.04 "HgN/A
9:50 PM59 °FPassing clouds.8 mph82%30.04 "HgN/A
9:20 PM59 °FPassing clouds.9 mph82%30.04 "HgN/A
8:50 PM59 °FPassing clouds.9 mph82%30.04 "HgN/A
8:20 PM59 °FPassing clouds.10 mph82%30.04 "HgN/A
7:50 PM59 °FPassing clouds.12 mph82%30.01 "HgN/A
7:20 PM59 °FSunny.12 mph82%30.01 "Hg10 mi
6:50 PM61 °FScattered clouds.13 mph77%30.01 "HgN/A
6:20 PM61 °FScattered clouds.13 mph77%30.01 "HgN/A
5:50 PM61 °FPartly sunny.12 mph83%30.01 "HgN/A
5:20 PM61 °FPartly sunny.13 mph83%30.04 "HgN/A
4:50 PM61 °FPartly sunny.12 mph83%30.04 "HgN/A
4:20 PM59 °FPartly sunny.10 mph82%30.04 "HgN/A
3:50 PM59 °FThunderstorms. Broken clouds.12 mph82%30.04 "HgN/A
3:20 PM59 °FLight rain. Partly sunny.13 mph82%30.04 "HgN/A
Weather by CustomWeather, © 2015

See weather overviewHow to use our weather pages